User: anonymous   Login
Location: Cahas Mountain Overlook
(37.0833°N, 80.1000°W)
Time: 23:42:59
(UTC-04:00)
Language:

FO-99 - Orbit

View from above orbital plane
View from above orbital plane
View from above satellite
View from above satellite

Ground track
Ground track

The orbit data is extracted from the following two-line orbital elements,

1 43937U 19003F   23087.65722437  .00050036  00000-0  10788-2 0  9995
2 43937  97.0991 116.2990 0014932 201.1297 158.9337 15.44301639233585
Epoch (UTC): 28 March 2023 15:46:24
Eccentricity: 0.0014932
inclination: 97.0991°
perigee height: 423 km
apogee height: 443 km
right ascension of ascending node: 116.2990°
argument of perigee: 201.1297°
revolutions per day: 15.44301639
mean anomaly at epoch: 158.9337°
orbit number at epoch: 23358

The dashed part of the orbit path shows where the satellite is in the earth's shadow,  

DLR